Theta_e
287 287 287 287 287 286 286 286 286 286 286 285 285 285 285 286 286 286 286 286 286 286 286 286 286 286 286 287 286 286 286 287 288 287 286 285 285 284 284 284 284 285 286 287 288 288 288 287 288 288 288 288 288 288 288 288 287 286 286 285 284 284 284 283 282 284 286 288 289 289 290 290 290 289 290 290 290 290 292 288 288 288 288 289 289
286 286 286 286 286 286 286 286 286 285 284 284 283 284 284 284 285 285 284 284 285 284 284 284 284 285 285 285 286 285 284 285 286 287 285 284 283 283 282 282 282 283 284 285 286 287 287 287 287 288 288 287 288 288 288 288 288 287 287 286 285 285 286 284 284 284 284 287 288 290 290 290 289 291 290 290 290 291 290 290 290 288 288 289 289
285 286 285 285 285 285 285 285 285 285 284 283 282 282 282 283 284 283 283 283 283 283 283 283 283 283 283 283 284 284 282 283 284 286 285 283 282 281 281 281 281 281 282 283 284 285 285 285 286 287 288 287 287 287 287 287 287 287 287 287 286 286 286 286 285 284 285 286 289 288 289 289 289 290 291 291 291 291 290 290 290 291 290 289 289
285 285 284 284 284 284 284 284 284 284 284 283 282 281 281 281 282 282 282 282 281 281 282 281 281 281 281 281 282 282 281 281 282 284 285 282 281 281 281 280 280 280 281 281 282 283 283 283 284 285 286 285 285 286 286 286 286 287 286 287 287 287 287 287 286 286 286 285 288 288 289 289 290 291 291 291 290 290 290 291 291 290 291 291 290
283 284 283 283 283 282 282 282 282 283 283 283 282 281 280 280 281 281 281 281 280 280 280 280 279 279 279 279 280 280 280 280 281 281 282 282 281 281 280 280 279 279 280 280 282 281 280 280 281 282 283 283 284 284 285 285 286 286 286 286 287 287 287 287 287 287 286 286 287 289 289 289 289 289 290 289 290 290 290 290 290 290 291 291 292
282 282 282 282 281 281 281 280 280 281 282 282 282 282 280 279 279 280 280 280 279 279 278 278 279 278 278 278 279 279 279 279 280 280 280 281 281 281 281 280 279 278 279 279 279 279 278 278 279 280 281 281 282 283 284 284 285 285 285 286 286 287 286 287 287 287 287 287 287 287 289 288 289 289 290 290 289 289 289 290 290 290 290 290 290
280 280 280 280 280 280 279 279 279 279 279 281 282 282 280 279 279 279 279 279 279 278 277 277 278 277 277 277 278 278 278 279 280 280 280 280 280 280 280 279 278 277 277 278 279 278 278 278 278 279 279 280 282 283 284 284 285 285 285 284 284 283 283 284 285 285 286 286 286 287 287 289 289 288 289 290 290 289 288 287 288 290 290 290 290
278 278 278 278 278 278 278 278 278 278 278 279 279 280 280 279 278 278 278 278 278 277 276 276 276 276 276 276 277 277 277 278 279 280 280 280 280 280 279 278 276 276 276 277 278 278 278 278 278 279 280 282 281 280 281 281 281 280 281 281 281 280 279 280 280 280 281 282 283 283 284 285 287 289 289 289 288 288 288 288 286 287 289 290 290
277 276 276 276 277 277 277 277 277 277 277 277 277 278 278 278 277 277 277 277 278 277 276 276 275 275 275 275 275 276 276 277 279 280 279 279 279 279 278 276 275 275 276 276 277 277 277 278 278 279 280 281 281 281 281 281 279 278 279 280 279 279 278 278 277 277 277 278 277 279 280 281 282 283 284 285 285 286 288 288 287 288 288 288 289
276 275 275 275 276 276 276 276 276 275 275 275 276 276 276 276 276 276 276 276 276 276 275 275 275 274 274 274 275 275 275 277 280 281 281 280 279 279 277 276 275 275 276 276 276 277 277 276 277 279 279 279 279 280 280 280 280 279 278 277 277 276 276 276 276 276 277 276 277 277 277 277 279 281 282 283 285 287 286 286 286 287 287 286 288
275 274 274 275 275 275 275 275 275 274 274 274 274 275 275 275 275 275 275 275 275 275 274 274 274 274 273 273 273 274 274 277 280 281 281 282 280 278 276 275 275 275 275 275 275 275 275 275 275 276 277 278 277 278 278 278 278 279 280 280 280 278 276 276 276 277 277 277 277 277 277 277 279 281 282 284 285 285 285 285 285 286 285 284 283
274 274 274 274 274 274 275 274 274 274 274 273 274 274 274 274 274 274 274 274 274 274 273 273 273 273 273 273 273 273 273 277 280 280 280 281 281 279 276 275 275 275 275 274 274 273 273 273 274 275 275 276 275 274 275 277 279 280 280 280 281 281 281 279 277 276 275 275 274 275 276 277 279 281 282 282 280 280 280 280 280 280 279 279 280
274 273 273 273 273 274 274 274 273 273 273 273 273 273 273 273 273 273 272 273 273 272 272 272 272 272 272 271 272 272 272 277 278 279 280 281 282 279 276 275 275 274 273 273 272 272 272 273 273 274 274 275 275 273 273 275 278 278 278 277 277 278 279 280 280 278 277 275 274 274 275 276 276 277 279 279 280 278 278 279 279 279 279 278 278
273 273 273 273 272 273 273 273 273 272 273 273 272 272 272 271 272 272 272 272 272 271 271 271 271 271 271 271 271 271 271 275 278 278 279 280 280 278 274 273 273 273 272 272 272 272 272 272 271 272 272 272 272 273 273 273 273 274 274 274 274 275 277 278 278 278 278 276 276 275 276 278 276 277 278 279 277 276 277 277 278 278 278 278 279
272 272 272 272 272 272 272 273 272 272 272 272 271 271 271 271 271 271 271 271 271 270 270 270 270 271 271 271 271 270 271 275 277 278 279 278 278 276 273 272 272 271 271 271 271 271 271 271 271 270 270 270 271 272 273 274 274 273 273 273 273 273 274 275 275 275 276 276 275 275 276 277 277 277 278 279 279 279 280 279 279 279 279 280 280
272 272 271 271 271 271 271 272 271 271 271 271 270 270 270 270 270 270 270 271 271 271 270 270 270 270 270 270 270 269 270 274 276 277 277 277 277 273 271 271 270 270 270 271 270 270 270 270 269 269 268 268 271 276 276 274 272 270 270 270 271 271 271 274 276 277 275 274 274 274 274 274 277 275 276 276 276 276 277 277 278 277 276 276 276
272 271 271 271 271 271 271 271 271 270 270 270 269 269 269 269 269 270 269 270 269 269 269 269 270 270 270 269 269 269 269 272 275 275 276 277 274 271 270 270 270 269 269 269 269 269 269 269 268 268 268 268 273 276 276 274 270 269 269 268 269 269 269 271 274 273 273 274 274 274 274 274 275 275 275 276 275 275 275 274 273 274 272 272 274
271 271 271 271 270 270 270 270 270 269 269 269 268 269 269 269 269 270 268 268 268 268 268 268 269 269 269 268 268 268 269 271 273 274 275 274 274 270 270 269 268 267 267 268 268 267 268 270 269 268 268 270 274 274 275 272 268 267 266 266 265 265 266 268 267 266 270 270 269 269 270 270 271 272 272 273 274 275 269 265 266 267 264 265 265
270 270 270 270 270 270 269 270 269 268 268 268 268 268 268 268 268 269 268 268 267 268 268 268 268 268 268 268 269 268 268 268 272 273 273 273 273 270 269 267 266 266 266 266 266 267 266 267 269 269 270 271 273 273 273 270 267 266 265 264 263 264 265 265 261 261 260 260 261 262 263 265 265 265 267 271 273 270 265 264 264 264 262 263 264
270 270 270 270 269 269 269 269 269 268 267 268 268 268 268 267 267 267 267 267 267 267 267 267 267 267 268 267 267 267 267 267 269 271 272 273 273 269 268 266 265 265 265 265 265 265 266 266 267 269 271 271 272 271 271 271 266 265 264 263 262 262 264 261 259 259 258 258 258 260 260 262 263 264 265 265 265 264 264 263 263 263 262 262 263
270 270 270 269 268 268 268 269 268 267 268 267 267 267 267 266 266 266 266 266 266 266 266 266 266 265 266 266 266 266 267 266 265 269 270 271 272 270 267 266 266 265 264 264 264 264 264 265 265 268 270 270 270 269 269 269 268 264 263 263 263 264 264 258 256 258 256 257 257 258 258 260 260 260 260 261 261 261 262 262 261 261 260 260 262
269 269 269 268 268 268 267 268 268 267 267 266 265 265 266 266 265 265 265 265 264 265 265 264 263 263 264 265 265 266 266 265 264 266 269 270 270 271 267 266 267 265 264 264 264 264 263 264 264 266 269 269 268 268 267 267 266 263 263 267 267 265 260 257 255 255 255 255 255 255 256 256 256 257 258 258 259 259 259 258 259 260 260 261 260
269 268 268 267 267 267 267 266 266 266 265 265 264 264 264 264 263 264 263 263 264 263 262 262 261 261 262 264 265 264 264 263 265 264 267 268 269 269 269 268 269 266 264 263 263 263 263 263 264 266 268 267 266 266 265 265 263 263 266 266 265 263 259 254 254 253 253 253 253 253 254 254 255 255 256 256 257 258 258 258 259 259 260 260 261
267 267 266 266 266 265 265 265 265 265 264 263 262 263 262 263 262 262 262 263 262 260 260 260 260 260 261 263 263 262 262 262 263 264 264 267 268 269 269 269 268 266 265 264 263 263 263 263 264 267 266 265 265 264 263 262 263 264 264 264 262 259 254 253 253 253 253 252 252 252 252 254 254 254 255 256 256 257 257 258 258 258 259 259 260
266 265 265 264 264 264 264 264 263 263 263 263 261 262 261 261 260 261 262 261 260 258 258 259 259 260 261 261 260 260 261 261 261 262 263 265 267 268 267 268 267 268 264 263 263 263 264 266 266 265 264 263 263 261 259 259 262 262 262 261 256 254 252 252 252 252 251 251 251 252 252 253 254 255 256 256 256 256 256 256 257 257 258 259 259
263 263 263 263 263 263 262 263 262 262 262 262 260 261 260 259 259 259 261 260 258 256 257 258 259 260 260 260 259 259 260 260 260 260 261 263 264 265 266 266 265 266 265 264 264 263 263 263 263 262 260 258 256 255 255 255 258 258 258 255 254 253 252 251 251 251 250 251 251 251 252 254 254 255 255 255 254 254 255 254 254 255 255 256 256
262 262 262 262 262 262 261 261 260 261 260 261 260 260 259 258 258 258 259 257 254 254 254 256 258 259 259 258 258 258 258 258 259 259 260 262 262 262 262 262 263 264 262 262 258 257 257 257 257 258 257 257 256 256 255 255 253 253 253 253 252 252 252 252 252 251 251 251 251 252 253 253 254 253 253 253 252 253 255 254 254 253 255 255 254
261 261 261 261 261 261 260 260 260 259 259 259 258 258 258 259 257 257 257 254 254 254 256 258 259 259 257 256 255 255 256 257 258 259 260 262 262 262 262 262 262 262 261 260 256 256 254 255 254 253 253 252 252 251 251 251 251 251 251 251 251 252 253 253 253 252 252 252 252 252 252 252 251 251 252 252 252 252 254 254 253 253 254 254 252
260 260 260 260 260 260 259 259 259 258 258 258 259 258 257 256 259 259 260 259 257 256 257 258 260 260 258 256 256 255 257 257 258 263 263 265 262 261 261 261 262 261 262 264 255 253 251 250 250 250 250 250 250 250 250 250 250 250 250 250 250 250 250 250 250 250 250 251 250 251 250 251 251 252 251 251 252 252 253 253 253 253 253 253 251
259 259 259 258 259 258 258 258 258 257 257 256 256 256 259 260 261 259 257 259 260 261 263 260 261 260 259 258 259 258 257 258 264 266 264 264 264 265 265 266 266 263 264 264 256 250 249 248 248 249 249 249 248 249 249 249 249 249 249 251 250 249 250 250 250 250 251 251 250 250 250 251 250 251 251 251 251 252 253 254 252 253 252 251 251
258 258 258 257 259 258 258 257 257 257 256 256 255 255 255 255 259 260 259 258 259 260 262 263 263 263 261 258 259 263 264 264 264 265 264 263 264 264 265 265 265 264 264 258 250 249 247 247 248 248 248 248 248 248 249 248 248 248 248 249 249 249 250 249 249 250 250 250 250 250 250 250 250 251 250 251 251 252 252 252 252 252 251 251 250
256 257 258 257 258 257 257 257 256 256 255 256 255 254 253 252 252 256 258 257 257 259 261 262 262 262 262 261 260 258 261 263 264 263 260 260 261 263 264 264 264 264 263 260 249 247 247 247 247 248 248 248 248 249 248 248 248 248 248 248 248 249 249 248 250 250 250 249 249 250 250 250 250 251 251 251 252 251 251 251 251 251 251 251 251
256 257 257 257 257 256 256 256 255 255 254 254 253 254 252 250 249 249 252 256 256 257 259 259 259 260 261 261 262 261 261 262 263 261 259 260 262 261 264 263 262 262 260 252 247 246 247 247 247 248 248 247 248 248 248 248 248 248 248 247 247 248 248 249 250 249 249 250 250 250 250 250 251 251 251 251 251 250 251 250 251 251 251 250 250
256 257 256 256 255 255 256 255 255 254 255 255 253 252 251 251 249 249 249 249 250 253 255 256 256 256 257 259 258 258 260 260 259 258 259 259 261 263 262 257 260 259 257 249 247 246 247 247 247 248 248 248 248 248 248 248 248 248 248 248 248 248 248 249 249 249 249 249 249 250 250 250 251 250 250 250 251 251 250 250 250 250 250 250 250
256 256 256 256 255 254 255 255 254 254 254 253 252 252 250 250 250 249 248 248 248 248 248 250 253 255 254 254 256 257 257 257 259 260 260 261 262 263 259 250 248 248 248 246 247 247 247 247 247 248 248 247 248 248 247 247 248 247 247 247 248 248 248 248 248 249 249 249 249 250 250 250 250 250 250 250 250 250 250 250 250 251 250 250 250
256 256 255 255 254 254 254 253 254 253 252 252 252 251 251 250 249 249 248 249 248 248 248 249 251 253 254 254 254 255 255 256 256 258 258 259 260 260 249 247 246 246 247 247 247 247 248 248 248 248 248 248 248 248 248 247 247 247 247 248 248 248 248 248 248 248 249 249 249 250 250 250 250 250 250 250 250 250 250 250 250 251 251 251 251
255 255 255 255 254 254 253 253 253 253 253 252 251 250 250 250 248 247 248 248 248 248 248 248 248 248 251 252 253 254 254 254 255 255 256 256 258 253 245 246 245 246 246 246 247 247 247 247 248 247 247 247 247 248 248 247 247 247 248 248 248 248 247 248 249 249 249 249 249 249 249 249 249 249 250 249 250 250 250 251 251 251 251 251 252
254 254 253 253 253 252 252 251 251 252 251 250 249 249 248 248 246 248 248 247 248 248 247 247 249 247 247 247 251 250 251 252 253 252 252 252 250 245 245 245 246 246 246 246 247 246 247 247 247 247 247 247 247 247 247 247 248 248 247 248 248 248 249 249 249 249 248 248 248 248 249 249 249 249 250 249 249 250 250 251 250 250 250 251 251
254 254 254 253 253 252 251 250 249 249 247 248 248 248 247 247 247 247 247 246 246 246 247 246 246 247 247 248 246 249 249 247 247 247 248 248 248 246 245 245 245 246 247 247 247 247 247 247 247 248 248 247 247 248 247 247 247 247 247 247 247 247 247 247 247 248 248 248 248 248 249 249 249 249 249 249 250 250 250 250 250 250 250 250 250
253 253 253 253 251 251 251 250 249 248 248 247 247 247 247 247 247 246 246 246 245 246 246 246 247 247 248 246 247 248 247 248 248 247 247 247 247 247 246 246 246 246 246 246 247 247 247 247 247 247 247 247 247 247 247 247 247 248 248 247 247 247 247 247 247 247 247 248 248 248 248 248 249 249 249 250 250 251 250 250 250 250 250 250 250
252 252 252 252 251 249 250 249 248 248 247 247 247 246 246 247 247 247 246 246 246 246 246 247 247 247 248 250 251 252 249 248 248 247 247 247 247 247 247 246 246 246 247 247 247 247 247 247 247 247 247 247 247 247 247 247 247 247 247 248 248 247 247 248 247 247 248 248 248 248 248 248 249 248 248 250 251 251 251 251 250 250 250 251 250
248 248 249 248 249 249 248 248 247 249 248 248 247 247 247 247 247 246 246 246 247 247 246 247 247 247 249 250 251 251 250 248 247 247 247 247 247 247 247 247 247 247 247 247 247 247 247 247 247 247 247 247 247 247 247 247 247 247 247 247 247 247 247 247 247 248 248 248 248 248 248 248 249 250 250 251 250 250 250 250 250 250 250 250 250
249 248 248 248 248 248 247 247 247 246 246 246 246 247 248 247 246 247 247 247 247 247 246 246 246 247 248 250 250 250 248 247 247 247 246 246 246 247 247 247 247 247 247 247 247 247 247 247 247 247 247 247 247 247 247 247 248 247 248 247 247 247 247 248 248 248 248 248 248 248 248 248 249 249 250 250 250 250 250 250 250 250 250 250 250
248 248 248 248 248 247 248 247 246 247 246 247 248 248 247 247 246 246 246 245 246 246 246 246 246 246 246 247 248 247 246 246 245 245 246 246 246 247 247 247 247 247 247 247 247 247 247 247 247 248 248 248 248 248 248 248 247 247 247 247 248 248 248 248 248 248 248 248 248 248 248 249 250 250 250 250 250 249 249 250 250 250 250 250 250
247 247 247 246 247 247 246 247 247 246 247 247 245 245 246 246 245 245 245 245 246 246 246 246 246 246 246 246 246 246 246 246 246 246 246 246 246 247 247 247 247 247 247 247 248 247 247 247 247 247 247 248 248 248 248 248 248 248 248 248 247 247 248 248 248 249 249 248 248 249 249 249 250 250 250 250 250 250 250 250 250 251 250 250 250
247 247 247 247 246 247 247 246 246 246 245 245 244 244 244 244 245 245 245 245 246 246 245 246 246 246 246 246 246 246 246 246 246 246 246 246 246 247 247 247 247 247 247 247 248 247 247 247 247 247 247 248 248 248 248 248 248 248 248 248 248 248 249 249 249 249 248 249 249 249 250 250 250 250 251 250 250 250 250 250 250 250 250 250 251
247 246 247 246 247 246 246 247 245 245 244 245 245 245 245 244 244 245 246 246 246 246 246 246 245 245 245 245 245 245 246 246 246 246 246 246 246 247 247 247 247 247 247 247 247 248 247 248 248 248 248 248 248 248 248 248 248 249 249 249 248 248 248 249 249 249 250 251 251 251 251 250 250 250 250 250 250 250 250 250 250 250 250 251 251
248 247 247 247 245 245 245 245 245 246 246 246 245 245 245 245 245 245 245 245 245 245 245 245 245 245 245 245 246 246 246 246 246 246 246 246 247 247 247 247 247 247 247 247 248 248 248 248 248 248 248 248 248 248 248 249 249 249 249 249 249 249 250 251 251 251 251 252 252 252 251 251 250 250 250 250 250 250 250 250 251 251 251 251 251
247 246 246 246 245 245 245 245 245 245 245 245 245 245 245 245 245 245 245 245 245 245 245 245 245 245 245 245 246 246 246 246 246 246 246 246 247 247 247 247 247 247 247 247 248 248 248 248 248 248 248 248 248 248 248 249 249 249 249 249 250 252 252 252 252 252 253 253 252 252 252 251 250 250 250 250 250 250 250 251 251 251 251 251 251
246 246 246 246 246 246 246 246 245 245 245 245 244 244 245 245 244 244 244 244 244 245 245 245 245 245 245 245 245 246 246 246 246 246 246 247 247 247 247 247 247 247 247 247 248 248 248 248 248 248 248 248 249 249 249 249 249 249 249 249 251 252 252 253 253 253 253 252 252 252 251 251 250 250 250 250 250 251 250 251 251 251 251 251 251
246 246 246 246 245 245 245 245 244 244 244 244 244 244 244 244 244 244 244 244 244 244 245 245 245 245 245 245 246 246 246 246 246 246 246 246 247 247 247 247 247 247 247 247 248 248 248 248 249 249 249 249 249 249 249 249 249 249 251 252 252 253 254 253 253 253 253 253 253 252 251 251 250 250 250 250 251 250 251 251 251 251 251 251 251
Wind_Speed
8 8 8 9 10 11 10 10 11 9 11 11 11 10 10 9 9 8 8 11 9 10 11 11 11 11 11 11 11 12 12 12 10 10 11 12 11 11 12 12 12 11 10 11 10 9 10 9 9 9 7 8 8 8 8 8 7 6 6 6 6 5 5 6 10 14 7 5 10 11 14 13 13 5 12 9 9 7 8 6 7 8 8 8 9
8 8 8 9 10 10 10 9 9 10 11 11 11 10 9 9 8 9 10 9 9 10 11 10 10 11 11 11 11 11 12 11 10 9 11 12 11 10 11 12 12 11 10 12 12 10 9 10 10 10 8 8 8 9 8 8 8 8 7 7 7 8 5 6 9 10 14 7 10 9 11 10 15 9 10 14 12 10 11 10 8 7 9 9 9
6 6 8 9 10 9 10 10 9 10 11 10 10 10 9 9 8 9 9 9 9 10 10 10 10 11 11 11 10 10 12 11 11 10 10 12 11 11 10 11 12 12 12 11 11 10 11 10 11 11 9 10 8 8 8 8 8 8 8 7 7 8 7 6 8 12 13 12 7 11 9 11 11 15 13 12 12 10 13 12 10 9 7 8 9
6 7 8 10 10 11 11 9 9 8 9 9 10 9 9 8 7 9 8 9 10 9 9 10 10 11 10 11 10 10 11 11 11 11 11 11 11 11 11 11 10 10 11 11 11 11 11 11 12 11 10 10 10 9 8 9 9 8 8 8 7 8 8 7 7 9 11 13 9 9 10 10 12 11 11 12 13 12 10 11 9 10 10 9 10
7 7 7 10 10 11 9 8 9 9 9 8 9 9 9 8 8 9 8 9 9 9 9 9 10 11 11 10 10 10 10 10 10 11 11 10 10 10 10 10 10 10 10 10 10 11 11 11 12 11 11 11 10 10 10 11 10 9 9 9 8 8 8 8 9 8 11 12 12 8 9 9 9 10 10 13 13 11 11 11 11 11 11 10 9
7 7 6 9 9 10 8 8 9 9 8 8 8 8 8 8 8 8 8 8 9 9 10 10 10 10 10 9 9 9 9 10 10 10 11 10 10 9 8 9 10 11 11 10 10 10 11 11 11 11 11 11 11 11 11 11 10 10 11 10 10 9 10 9 9 10 11 12 11 12 7 10 10 7 9 10 12 14 13 12 12 10 10 11 8
7 8 7 7 8 9 9 9 8 8 8 7 6 7 8 8 9 9 8 8 9 9 9 9 9 9 9 8 9 9 9 9 9 10 10 10 10 9 9 9 10 9 10 10 9 9 10 10 10 10 11 11 11 12 13 12 11 12 12 13 13 13 13 12 12 13 12 13 11 8 10 7 8 11 9 8 12 11 13 15 14 9 7 10 12
8 7 6 6 8 8 8 7 7 7 7 7 7 7 7 8 8 7 7 8 9 9 9 9 7 7 7 7 7 7 8 7 8 9 9 10 10 9 9 10 10 10 10 9 9 9 9 9 10 11 11 11 13 14 15 14 13 13 12 13 13 13 13 13 12 12 12 12 11 12 11 11 10 8 8 9 10 10 7 9 15 16 13 11 11
8 7 6 7 7 6 6 6 6 7 7 7 8 8 7 6 7 6 7 7 6 7 7 8 8 8 8 7 7 7 7 8 8 11 11 11 10 9 9 10 10 10 10 10 9 9 9 9 10 12 15 19 22 19 18 17 13 13 13 12 13 12 10 10 10 10 10 11 11 11 11 12 10 11 11 10 11 12 10 9 13 12 11 12 13
7 7 8 7 5 5 7 7 7 7 8 8 7 7 6 6 6 6 7 7 7 7 8 8 8 9 10 9 8 7 8 6 15 22 19 13 10 8 8 9 10 9 9 9 9 9 10 11 12 20 19 19 19 20 21 22 22 16 15 14 13 12 12 12 11 9 10 11 11 10 13 11 11 9 12 10 10 10 12 11 12 13 13 10 12
8 8 8 6 5 5 7 7 7 8 7 6 6 6 6 5 6 7 7 7 8 8 8 9 9 9 9 9 9 8 8 9 22 21 21 22 14 9 8 8 8 8 8 10 10 11 11 12 11 14 15 15 15 21 22 23 22 22 23 22 19 15 13 14 11 11 11 12 10 10 10 12 11 9 10 13 10 11 12 12 12 12 12 14 15
8 8 7 5 5 6 6 6 7 6 6 6 5 5 5 7 8 8 7 8 8 7 8 9 8 8 8 9 9 9 8 16 22 22 22 23 22 12 6 7 7 7 8 10 10 11 12 11 10 9 10 15 16 15 18 21 23 24 23 22 21 21 19 14 15 13 11 12 13 12 12 12 13 12 11 12 14 15 13 13 13 13 15 16 15
8 7 5 5 5 6 5 6 6 6 6 6 6 6 7 8 8 8 9 7 7 9 9 9 9 9 9 9 9 9 7 17 21 22 23 24 24 16 8 9 9 9 9 10 10 10 9 10 10 10 10 19 15 13 13 15 21 24 24 24 22 22 22 23 21 16 14 12 12 13 11 13 16 14 13 15 15 16 15 12 11 13 13 16 16
7 6 5 5 5 5 5 5 7 7 6 6 6 7 8 8 7 7 6 7 8 8 9 10 9 10 10 10 9 9 8 17 21 22 22 23 23 17 9 10 8 9 10 10 10 10 10 11 11 10 10 11 11 13 16 17 17 17 16 13 13 16 18 20 21 22 18 13 12 15 14 12 14 14 15 17 18 19 18 18 16 16 16 17 17
6 5 5 6 6 6 6 6 6 7 6 6 6 7 8 7 8 8 7 7 9 9 10 10 9 9 9 9 8 9 9 19 19 21 22 24 23 15 9 9 9 10 9 8 10 10 11 10 11 12 13 13 13 19 20 19 18 16 16 16 15 15 14 13 12 10 12 12 14 15 17 16 14 16 15 14 14 14 14 17 16 16 17 16 18
6 6 6 6 6 6 6 5 6 6 6 6 7 8 8 7 8 7 7 6 7 6 7 7 7 8 8 8 8 9 9 17 19 21 24 23 22 11 10 9 9 8 8 10 10 9 10 11 11 11 12 12 18 27 25 21 18 17 17 16 14 13 12 15 21 21 19 17 16 18 18 21 27 24 24 23 20 19 19 18 14 14 14 16 14
6 6 6 6 6 6 6 6 6 7 6 6 7 7 7 7 7 6 7 7 7 7 7 7 6 7 8 8 8 8 8 13 19 22 21 24 19 11 11 9 9 10 11 11 10 11 10 12 13 11 12 14 23 29 29 27 16 18 17 17 15 13 12 13 17 21 23 25 27 30 33 34 34 34 33 34 25 23 18 15 14 16 16 16 15
6 6 6 6 6 6 6 6 6 6 6 7 6 6 6 6 6 6 6 6 7 7 7 6 6 7 8 8 9 8 7 13 21 19 21 25 21 12 10 10 11 11 11 11 10 10 12 18 16 12 14 16 28 29 29 23 17 18 18 17 17 16 15 14 12 14 22 23 23 24 24 25 28 30 30 29 29 23 11 11 13 12 11 13 17
6 6 6 6 6 6 6 6 5 5 6 6 6 6 6 6 6 6 5 5 6 6 6 6 6 6 7 8 10 10 8 11 16 19 24 23 18 12 12 10 11 12 11 11 10 9 9 11 17 17 18 23 30 27 28 24 18 17 17 16 16 16 16 16 14 16 15 14 13 15 15 18 17 15 17 26 24 18 15 15 15 14 13 13 14
5 6 7 7 6 6 5 5 5 5 6 5 6 6 5 6 6 6 6 6 5 6 5 6 7 7 7 8 8 9 9 8 12 22 23 22 22 15 10 11 12 13 12 11 11 10 10 9 12 19 25 27 26 27 26 27 19 15 14 13 16 17 16 13 13 14 14 14 15 14 14 14 13 14 14 16 16 18 18 15 14 14 14 15 15
6 7 7 6 6 6 5 5 5 6 5 5 5 5 6 6 6 6 5 5 6 6 7 6 7 7 7 8 7 7 7 10 13 22 20 21 22 18 10 11 12 12 12 11 10 10 10 10 10 18 25 26 25 25 24 24 22 14 12 13 15 19 19 12 14 18 13 13 13 13 12 12 12 12 12 12 13 13 14 16 16 16 15 16 17
6 6 6 6 6 6 5 5 5 4 5 5 5 5 6 5 5 5 5 5 6 6 7 6 6 6 6 7 6 6 9 15 12 15 18 19 19 20 12 12 14 13 12 11 11 9 11 11 10 18 25 25 23 22 22 21 21 11 14 21 23 24 16 12 12 11 11 11 11 11 11 11 11 11 12 12 12 14 14 15 15 17 15 14 15
6 6 6 6 5 5 5 5 4 4 5 6 6 5 5 4 5 5 5 5 6 6 7 6 6 6 5 5 5 8 9 9 14 12 17 18 19 17 19 15 20 12 12 11 11 11 10 11 12 22 24 24 22 21 19 21 15 13 23 22 22 23 17 10 12 11 10 10 10 10 11 11 11 11 12 13 13 14 15 15 16 17 17 16 18
6 6 5 5 5 5 4 5 5 5 6 6 5 4 5 4 5 3 5 4 3 5 4 5 5 5 6 6 6 7 7 8 9 15 14 18 17 18 18 19 19 13 12 10 10 11 10 12 15 24 23 22 20 19 18 18 14 20 21 22 22 18 10 10 9 10 10 10 10 10 11 11 11 12 13 13 15 16 16 16 17 17 17 16 18
5 5 5 5 4 4 4 5 6 5 5 5 4 3 4 5 4 5 3 4 5 3 5 4 5 5 6 6 6 7 7 7 8 11 16 15 16 17 18 18 19 19 11 9 11 8 13 20 21 21 20 18 18 17 13 15 19 20 20 21 17 9 8 8 9 9 10 10 10 11 12 12 12 13 14 15 16 15 13 13 14 15 15 16 17
5 5 4 4 4 5 4 5 5 6 5 4 3 3 4 4 3 4 3 3 3 2 3 3 4 4 5 6 7 8 8 7 7 8 10 11 11 16 18 17 17 18 13 13 11 12 15 17 18 17 14 12 10 8 8 10 16 18 17 16 9 8 7 8 9 9 8 9 10 11 12 12 13 14 15 14 12 12 12 12 13 13 13 12 15
5 4 4 4 4 5 5 4 4 4 4 3 3 4 3 3 3 3 2 1 1 3 3 4 3 4 3 4 5 6 5 6 6 7 8 7 5 9 10 10 15 13 6 5 6 6 7 8 9 13 11 15 13 12 11 11 9 8 7 7 7 7 7 7 9 10 9 9 9 10 11 12 12 12 12 11 12 10 10 12 13 13 13 11 12
4 4 5 4 4 4 4 5 4 2 3 3 2 3 4 4 1 2 1 1 3 4 5 5 5 4 1 2 3 4 5 4 6 8 7 6 6 8 9 8 9 3 5 3 4 5 4 6 9 6 6 6 7 5 5 4 6 7 7 6 6 7 10 13 11 7 8 9 10 10 10 10 11 10 10 10 9 9 9 10 11 13 12 12 12
5 5 5 4 4 4 3 3 2 2 2 3 3 2 0 1 3 2 5 2 3 1 3 5 6 2 2 2 3 5 7 6 5 10 11 14 12 9 7 7 7 2 11 11 5 7 6 5 6 7 6 7 7 7 7 7 7 6 7 7 7 7 7 7 8 9 9 9 10 11 11 11 10 10 8 10 10 10 9 9 10 10 12 9 12
5 4 4 3 2 3 2 2 1 2 2 0 2 4 6 5 4 4 2 8 9 9 9 3 4 4 2 1 6 4 5 7 15 17 16 16 17 19 17 18 17 11 16 14 10 5 6 5 6 6 7 7 8 8 8 8 8 9 7 8 8 8 7 7 7 8 9 10 10 10 11 10 11 10 9 11 12 10 9 11 11 11 10 11 11
3 3 3 1 2 1 0 0 1 1 1 0 1 2 3 7 8 8 6 7 9 11 11 10 10 10 8 4 7 15 15 15 16 17 18 17 17 18 18 18 16 17 19 8 8 6 5 7 7 6 6 6 7 8 8 9 9 9 9 8 7 8 9 7 8 9 10 10 10 9 10 10 11 11 12 10 12 12 12 8 9 10 11 11 11
3 2 2 0 1 1 0 0 1 1 2 1 1 0 1 3 7 8 5 6 9 11 10 10 11 12 13 12 9 5 12 16 16 16 16 17 17 17 19 15 16 18 17 13 6 7 5 6 8 8 7 7 8 8 8 8 9 8 9 10 9 8 9 9 10 9 10 10 9 11 10 11 11 11 12 11 12 12 11 12 9 11 10 10 12
3 2 2 1 1 1 0 1 1 2 2 1 1 2 1 1 3 6 7 7 9 9 11 12 13 14 14 14 15 14 13 14 18 17 17 16 17 16 16 15 17 16 14 7 4 6 6 6 7 8 8 8 9 8 8 8 9 9 8 9 10 10 8 10 11 9 9 9 11 10 10 11 11 12 11 12 12 10 12 11 11 10 11 14 11
3 2 2 1 1 0 1 2 2 2 2 1 1 0 1 2 1 3 5 7 8 9 9 10 10 13 15 15 13 12 14 15 16 17 17 16 16 17 13 10 14 13 9 4 5 5 5 6 7 7 8 8 8 9 9 9 9 9 9 8 9 9 10 9 8 10 9 10 9 10 10 10 10 11 12 11 11 11 10 13 11 11 11 11 14
2 2 3 2 1 1 2 2 2 2 2 2 1 1 1 2 3 3 4 5 5 7 7 7 9 11 10 11 13 14 14 14 15 17 17 17 17 17 13 9 8 8 7 4 4 5 6 7 8 8 8 9 9 9 10 10 9 9 9 10 10 10 9 9 9 10 10 9 9 10 9 11 11 11 10 11 14 12 12 11 13 11 13 14 13
2 2 1 1 1 1 2 2 3 2 2 2 2 1 3 3 4 4 5 4 5 6 6 6 5 7 13 13 14 14 13 15 16 15 15 15 16 14 7 7 6 5 5 6 5 7 6 7 7 8 8 8 8 9 9 9 9 9 9 9 10 10 10 11 10 9 8 10 9 11 13 12 12 11 10 12 12 13 11 13 10 14 12 13 12
2 1 0 1 2 2 3 3 2 3 3 3 2 2 3 3 4 3 5 5 5 6 7 6 6 7 7 5 7 10 15 16 15 15 13 12 13 7 2 5 5 6 6 5 5 6 8 8 6 8 8 8 8 8 9 9 9 10 10 10 10 11 10 10 11 11 11 12 11 12 10 12 10 11 11 13 14 11 12 11 14 13 15 19 19
2 2 3 3 3 3 2 2 2 3 2 2 2 3 2 3 3 4 6 5 6 6 7 7 6 6 7 8 6 4 9 13 14 11 7 5 5 3 4 5 5 6 7 6 5 6 8 9 7 7 8 8 9 9 9 9 10 10 10 10 10 10 15 15 15 12 11 10 11 10 12 9 12 10 12 11 14 12 13 13 13 14 16 16 12
3 5 6 5 3 1 1 1 2 1 1 2 3 3 5 5 4 5 5 6 6 6 7 6 6 7 7 5 4 5 7 7 6 7 8 7 5 4 4 5 5 6 7 7 7 6 7 8 8 7 8 8 8 8 9 10 9 10 9 9 11 10 11 10 10 10 9 9 10 10 10 12 11 11 10 13 13 13 13 13 13 13 14 14 14
3 3 4 5 3 2 2 2 1 2 4 3 4 4 4 5 5 6 6 6 6 6 6 7 8 8 6 4 5 4 5 7 6 6 7 8 8 6 4 5 6 6 7 8 7 7 7 8 7 8 8 8 8 9 8 8 9 9 10 9 9 12 10 10 10 11 9 9 10 10 11 12 11 11 12 11 12 13 12 15 13 14 13 14 13
3 3 4 4 4 2 1 2 2 3 3 4 5 5 6 6 6 7 6 6 6 6 7 8 8 9 7 8 11 11 7 7 7 6 7 8 8 8 7 6 6 7 7 7 8 8 8 8 8 8 8 8 8 8 9 9 9 9 9 10 10 11 11 11 11 10 11 10 10 10 10 9 11 12 13 12 14 14 13 13 14 15 13 14 13
4 3 3 3 3 0 1 3 4 4 4 5 5 5 7 7 6 6 7 6 7 7 7 8 8 8 10 15 13 14 8 6 6 7 7 7 8 9 8 7 7 7 8 8 8 8 8 8 9 8 9 9 8 9 8 9 9 9 9 9 9 11 11 11 10 11 10 11 11 12 12 12 14 13 15 14 14 11 14 11 15 13 15 16 15
5 4 4 3 2 2 3 4 3 3 4 5 6 5 7 6 6 7 7 7 7 7 8 9 9 8 8 11 12 12 7 6 6 7 7 8 8 9 9 8 8 7 8 8 8 7 8 9 9 9 9 10 9 9 9 9 9 9 9 10 10 11 10 11 11 11 10 10 11 11 12 12 13 12 12 12 12 12 12 17 14 15 13 14 15
4 4 4 3 4 3 4 3 3 5 4 6 7 7 7 6 6 6 6 7 8 8 8 9 8 8 8 9 8 7 6 6 6 7 7 8 8 9 9 8 8 8 8 8 8 7 7 8 9 10 10 9 9 8 9 9 8 8 10 10 11 11 12 10 10 11 11 11 12 13 13 13 13 13 12 14 13 14 12 13 15 16 16 14 15
4 4 4 4 4 4 5 4 4 5 6 6 5 6 7 6 7 7 7 7 9 8 8 8 8 8 9 8 7 7 8 7 8 8 8 8 9 9 9 8 8 9 9 9 8 7 7 8 9 9 11 10 9 9 9 9 8 8 8 10 10 11 10 11 11 11 12 13 12 11 13 12 13 11 13 12 13 14 15 15 13 15 16 17 13
5 5 5 5 5 6 5 5 6 5 5 6 6 7 6 6 7 7 8 8 8 8 8 8 8 8 8 8 8 8 8 7 8 7 8 8 8 9 8 8 8 9 9 9 8 8 8 8 8 9 10 11 11 10 10 9 9 9 9 8 10 10 10 10 11 11 11 11 12 11 11 12 12 13 14 14 10 13 12 15 15 13 13 16 18
5 5 5 5 5 6 6 6 4 6 6 6 6 7 7 7 7 7 9 9 9 9 8 8 7 8 8 8 8 9 8 8 8 8 9 9 9 9 9 9 9 9 9 9 8 9 9 9 9 9 10 10 10 11 10 9 9 9 9 8 9 10 9 9 10 10 10 12 11 11 11 13 12 11 15 15 13 13 14 14 13 16 14 15 13
5 5 5 6 4 5 5 5 6 7 7 8 7 7 8 8 7 8 8 8 8 9 8 8 8 8 8 9 8 8 8 8 8 9 9 9 9 9 9 9 9 9 9 9 9 8 8 9 9 9 9 10 10 10 10 10 10 10 9 9 9 10 14 17 13 12 11 11 11 12 13 12 13 12 13 14 14 15 12 13 14 13 14 15 14
5 5 5 5 5 6 7 6 7 7 7 7 7 8 8 7 8 8 8 8 8 8 8 8 9 8 8 9 8 9 9 9 9 9 9 9 9 9 9 9 10 9 9 10 10 9 9 9 9 9 9 9 9 10 10 10 10 10 10 10 13 21 23 24 18 13 16 15 12 12 12 12 13 15 14 14 14 13 14 14 13 15 14 15 16
5 5 5 5 6 7 7 7 7 7 7 7 8 8 8 8 8 8 8 8 8 8 8 8 9 8 8 9 9 9 8 9 9 9 9 9 9 9 8 9 9 9 9 10 10 9 9 9 9 9 9 9 10 10 9 10 10 11 10 12 20 25 24 22 21 22 17 10 12 11 12 12 12 11 12 13 13 15 14 13 14 14 14 14 15
6 5 6 6 7 7 6 7 7 7 7 7 8 8 8 9 8 8 8 8 9 9 8 8 8 8 8 8 9 9 10 10 10 9 9 10 10 9 9 9 10 9 9 10 10 9 9 9 9 9 9 9 10 10 9 10 10 10 14 21 23 22 22 21 17 17 23 18 13 12 11 13 14 14 13 11 12 12 14 15 15 14 14 15 13
Wind_Direction
67 67 66 63 63 58 54 52 50 49 51 46 49 44 40 38 38 37 37 37 30 32 32 29 26 26 26 28 28 24 19 18 18 21 26 22 18 14 10 9 9 6 4 5 6 3 0 356 353 353 350 348 342 337 337 334 328 319 308 301 292 275 263 265 279 289 282 254 291 300 308 315 305 317 303 302 299 292 280 272 275 274 268 265 267
60 66 66 68 65 61 58 55 53 51 52 47 47 44 40 38 35 36 43 35 33 35 33 30 27 25 27 25 26 25 20 17 13 19 25 21 18 15 9 7 7 4 4 4 0 1 356 355 352 352 352 350 343 343 341 338 337 333 326 317 301 299 278 283 284 288 296 304 294 294 297 310 301 316 308 309 307 304 298 296 286 269 276 279 276
57 64 71 70 66 64 60 55 52 51 54 50 48 44 39 39 34 41 40 37 35 36 33 31 29 28 28 25 22 25 20 15 11 13 21 20 15 13 10 7 5 2 2 0 357 354 356 355 351 349 347 348 349 343 342 341 336 334 324 318 310 300 295 273 287 294 298 299 300 299 303 305 298 307 309 302 298 297 296 295 291 287 275 272 275
62 62 66 69 69 65 60 56 55 54 56 51 50 43 40 38 35 40 40 39 38 33 34 32 32 30 29 25 21 21 21 15 13 14 14 15 11 8 7 7 5 0 358 355 355 357 354 351 349 347 345 345 344 344 344 341 337 334 327 324 316 312 302 298 279 285 297 299 305 299 300 299 300 298 300 298 300 301 289 289 287 282 281 274 272
67 61 60 68 65 65 64 58 57 54 53 51 49 44 39 37 34 37 37 39 36 34 31 32 32 29 26 21 18 18 17 11 13 13 13 11 6 4 4 5 3 358 355 353 352 355 353 351 344 344 344 343 342 342 340 340 337 333 331 327 325 318 315 311 305 298 298 299 302 296 295 289 286 292 299 303 302 296 297 293 292 288 285 277 275
67 67 59 66 66 67 65 58 54 51 49 47 46 44 43 38 35 34 33 37 36 35 33 29 30 26 24 17 17 16 12 10 11 12 8 5 3 2 3 4 1 354 350 350 352 355 352 346 344 343 343 343 338 336 337 337 334 335 333 333 331 328 325 321 316 313 305 302 306 308 303 303 302 290 298 295 300 305 302 298 293 289 290 289 274
72 70 63 64 69 66 61 57 55 51 47 45 43 45 44 38 35 35 27 34 36 33 30 33 27 27 21 16 16 14 9 6 9 10 6 3 1 359 2 4 359 352 346 345 348 351 349 344 342 343 342 339 340 344 344 342 345 347 349 347 345 342 339 336 333 326 321 314 309 302 305 297 296 305 305 293 293 293 300 306 299 294 287 292 296
76 73 71 68 66 64 61 59 57 54 50 46 44 44 44 41 38 33 31 34 36 33 28 27 25 26 23 19 12 15 7 4 9 10 7 2 359 0 2 1 355 349 346 347 349 348 345 344 342 342 344 350 358 354 352 351 350 349 346 345 343 341 336 332 329 325 321 317 313 318 313 310 310 293 301 305 298 293 286 296 302 307 307 295 284
82 79 73 67 61 61 65 61 57 54 49 47 43 40 40 41 37 33 35 35 35 35 29 25 21 22 22 21 15 16 11 6 9 6 2 1 0 0 4 0 353 348 348 348 346 348 350 353 353 352 352 351 351 351 351 352 349 343 343 344 338 333 325 321 318 315 311 307 306 307 305 307 308 311 311 310 304 301 304 300 291 292 294 297 295
87 81 72 66 61 64 66 62 56 50 47 42 38 36 37 35 36 33 34 33 33 30 28 23 24 20 14 11 12 16 11 3 6 6 6 3 359 1 4 359 352 347 347 347 348 356 360 356 348 346 346 345 346 349 350 348 343 338 332 333 330 326 322 317 316 311 307 306 306 311 310 303 307 310 301 296 293 292 293 291 287 294 295 280 276
85 77 75 63 62 63 64 60 54 52 47 44 37 36 36 33 36 33 29 30 29 28 24 22 23 17 15 9 8 11 5 359 3 4 3 2 360 360 5 356 347 344 349 353 353 355 352 346 340 340 342 344 350 350 342 336 332 330 328 327 325 325 322 320 314 320 320 313 312 310 303 301 301 300 294 298 305 320 327 324 317 315 309 310 305
81 78 71 67 63 61 63 65 60 55 52 46 41 37 36 35 34 29 24 27 23 25 26 22 21 17 14 11 10 7 1 357 1 0 0 359 357 2 10 354 350 352 360 359 353 348 342 340 341 341 345 351 350 342 335 332 331 333 334 336 336 331 326 322 322 321 322 315 314 312 312 311 314 322 322 333 328 317 312 306 305 305 304 303 300
88 84 77 73 67 63 65 69 67 59 50 47 41 38 37 35 31 26 20 19 18 24 21 17 18 15 14 11 7 2 357 355 359 359 359 359 3 7 9 0 356 357 357 353 347 344 339 341 343 348 346 348 344 332 327 329 334 333 330 326 323 320 318 317 316 311 309 304 301 301 308 313 312 312 320 321 320 310 308 298 299 296 292 290 288
88 85 83 74 65 62 60 63 62 55 48 45 42 40 39 36 28 26 14 18 20 19 16 16 12 13 9 8 3 359 355 354 357 358 358 2 3 3 0 354 352 353 351 346 346 344 348 348 345 344 345 347 338 336 337 331 324 321 320 319 317 319 320 320 318 314 311 306 308 308 313 314 308 313 318 317 311 306 306 301 301 295 293 288 294
90 87 80 70 63 57 51 55 57 50 44 45 40 42 38 32 25 23 14 19 17 17 11 8 5 5 0 2 360 356 353 352 357 359 1 359 357 2 0 355 352 348 345 347 353 352 355 349 351 350 348 346 337 335 330 330 335 341 341 339 340 335 330 323 316 316 321 322 319 318 319 323 319 318 313 310 302 299 300 302 305 301 298 290 282
95 88 76 65 60 52 50 49 56 49 43 41 41 39 36 30 22 18 11 17 17 16 11 10 1 2 355 0 358 352 350 352 359 3 359 358 5 3 358 350 348 351 355 3 358 359 354 353 352 346 341 336 331 337 343 344 341 337 334 330 330 332 329 327 326 332 336 332 330 329 330 328 326 323 323 322 320 318 313 307 301 297 294 291 285
94 85 77 65 58 50 45 50 50 45 39 40 37 33 32 24 22 17 12 12 10 10 7 360 354 355 358 360 356 347 348 354 6 359 1 3 1 354 352 355 357 0 357 355 355 352 350 353 349 344 338 336 340 346 345 345 342 340 338 337 335 336 336 334 345 351 342 336 331 328 325 323 321 319 316 314 311 314 314 318 323 328 321 313 303
88 80 79 70 64 55 43 46 50 40 40 41 33 28 31 27 24 10 10 5 3 4 355 355 353 357 2 357 350 349 339 5 1 0 5 359 357 358 357 2 357 353 351 352 349 347 345 346 348 344 343 343 345 345 347 349 348 344 341 337 337 334 333 340 353 340 336 330 324 320 317 318 318 318 318 316 316 317 354 335 329 332 325 319 310
84 81 80 73 63 58 46 41 53 42 43 36 31 27 26 24 14 9 5 8 1 354 349 353 351 353 4 352 350 352 3 10 1 7 0 357 1 6 1 359 353 349 347 345 344 345 345 345 349 349 349 345 345 346 348 349 346 344 342 339 334 334 335 349 350 336 337 333 328 328 327 324 319 317 315 321 327 354 352 336 332 330 318 316 311
89 86 81 71 66 59 52 49 48 50 42 30 33 29 29 23 8 9 2 3 354 349 353 352 0 355 359 356 356 357 2 2 3 3 358 358 2 3 359 357 349 345 346 343 340 344 345 348 350 349 348 345 345 347 347 348 348 346 345 340 335 334 340 351 347 340 336 332 328 331 326 323 326 327 330 332 340 347 340 335 331 325 319 313 308
86 82 76 73 69 59 48 53 54 40 39 37 28 29 32 22 7 5 2 354 356 352 3 1 8 358 356 349 347 352 2 17 4 358 355 357 357 359 359 355 346 344 341 337 340 341 344 348 346 345 343 344 346 347 348 348 349 348 343 336 336 336 348 348 340 341 336 333 330 331 329 330 334 331 330 331 334 329 328 330 329 325 319 316 313
82 81 82 75 70 59 55 43 47 53 33 44 32 36 29 25 9 4 4 354 352 4 12 10 2 348 342 338 338 3 21 20 359 353 352 353 352 356 357 351 345 343 336 334 336 344 343 343 345 339 340 343 344 345 346 347 348 345 336 339 342 347 351 342 334 334 331 332 331 330 329 330 331 330 327 329 328 330 330 323 321 319 318 313 312
86 90 83 77 71 60 56 53 51 46 41 39 37 38 17 23 12 359 8 352 9 25 2 2 353 336 334 337 0 25 9 7 352 351 347 345 348 353 353 349 344 343 332 333 337 340 340 339 335 335 340 342 343 344 346 346 346 337 340 343 348 350 348 338 332 330 328 329 328 328 330 328 327 329 329 327 326 327 323 319 318 316 312 311 309
92 92 86 79 71 59 55 57 51 45 40 45 21 41 17 19 14 347 15 359 23 18 346 2 345 334 348 356 10 9 357 351 348 347 343 341 343 347 346 343 342 335 335 334 336 335 336 333 332 337 340 341 342 343 344 343 338 339 342 344 349 346 341 331 331 326 325 324 325 327 327 325 324 325 324 324 324 320 320 319 315 313 311 310 309
90 91 87 79 73 64 48 58 53 42 30 41 25 15 23 13 22 341 22 23 18 9 347 351 338 331 357 353 357 352 347 346 345 338 332 330 337 342 342 341 340 336 336 333 329 338 333 334 339 340 341 342 342 342 339 335 335 338 339 342 343 335 332 327 324 321 323 322 322 319 320 319 320 316 315 318 315 315 313 310 309 308 309 305 305
95 92 89 82 71 66 48 50 45 40 32 26 19 15 32 19 8 336 12 32 15 356 341 338 332 342 354 348 346 343 340 335 331 321 310 308 328 344 341 340 334 328 333 327 349 2 349 347 345 343 341 339 337 331 330 327 331 332 335 336 332 327 322 327 319 322 316 315 317 315 314 314 315 314 313 308 312 314 314 313 316 317 316 314 312
99 94 85 70 53 61 46 45 36 26 17 30 15 34 24 16 353 319 27 68 24 350 353 336 333 339 15 350 338 327 325 320 317 307 303 301 345 347 340 332 323 325 338 10 62 358 354 348 345 339 331 330 329 326 323 323 325 325 328 326 321 318 319 320 321 318 314 309 308 305 308 308 306 309 310 312 311 306 310 311 314 311 314 313 307
96 85 71 62 49 58 49 33 35 38 3 28 33 28 4 340 300 300 69 93 31 0 347 337 329 332 18 328 307 310 307 308 311 303 294 316 351 336 332 321 314 329 331 18 51 10 347 354 343 331 323 319 322 319 311 313 316 320 320 319 312 312 315 312 308 300 300 303 299 299 298 304 306 303 305 304 300 299 306 309 308 311 313 310 310
79 75 68 58 52 49 43 38 24 52 17 16 351 7 316 307 327 359 337 32 50 6 286 301 310 350 25 317 313 312 307 315 292 305 325 336 336 330 326 313 311 16 330 348 49 13 3 354 330 328 324 323 322 322 322 322 323 320 315 312 315 315 312 313 314 313 308 307 305 306 304 303 301 301 298 298 301 305 305 301 299 303 306 302 297
78 68 60 51 52 45 25 22 19 62 11 17 315 310 322 3 1 10 0 338 340 323 309 288 313 343 329 306 320 302 301 291 310 323 334 340 335 330 327 323 325 337 331 11 33 11 350 330 320 323 322 324 322 321 322 323 320 322 318 318 316 313 310 308 305 303 307 308 303 302 301 301 299 301 300 303 302 302 302 310 307 307 305 303 300
90 97 82 35 62 59 24 17 336 54 324 218 279 310 317 334 353 6 10 328 323 313 312 323 329 335 328 318 320 319 315 314 319 328 340 339 333 328 324 324 333 339 337 9 21 356 330 329 319 319 314 312 310 313 316 318 316 314 312 311 308 307 307 306 307 309 308 304 302 296 294 298 297 302 303 301 304 303 306 294 294 301 300 300 296
112 106 108 51 81 29 10 6 299 237 291 281 301 281 26 327 326 330 350 348 326 319 318 328 330 333 328 322 320 313 317 318 324 336 342 333 325 324 318 333 345 343 340 18 9 333 325 319 317 316 317 315 310 311 311 311 311 309 310 313 310 309 310 309 309 308 303 301 297 300 300 301 298 300 300 300 301 301 301 303 304 304 299 292 291
107 98 122 135 118 6 175 249 258 265 251 259 327 344 12 257 311 312 321 338 340 332 324 326 328 325 323 319 320 320 320 324 329 337 329 323 323 317 323 3 349 343 351 12 332 320 315 313 308 305 311 308 309 309 305 307 305 306 304 302 304 305 303 298 302 295 294 294 298 295 295 294 298 297 297 300 302 299 302 300 301 299 300 302 295
131 150 153 142 111 2 265 239 246 272 282 295 303 321 312 305 305 312 324 329 337 337 333 320 313 312 312 312 316 318 322 328 327 321 320 320 320 320 348 5 345 347 359 343 316 304 302 300 299 300 302 303 304 308 306 305 304 300 300 293 293 294 297 299 299 299 296 295 291 289 293 293 294 299 300 300 296 295 295 297 299 302 305 302 301
138 108 95 94 116 218 259 280 273 270 280 288 295 310 308 314 326 324 322 316 314 310 304 305 303 305 309 310 312 316 320 319 319 317 319 321 324 330 8 2 345 337 345 334 309 301 303 303 301 300 301 303 304 306 303 302 303 303 303 303 300 300 298 301 298 300 295 291 290 293 293 297 298 295 295 299 302 299 296 296 299 298 300 304 302
125 122 153 141 164 256 261 257 266 270 273 281 297 329 318 318 309 307 303 294 288 285 279 279 277 296 304 305 305 307 308 310 312 314 317 320 321 344 3 329 328 313 312 301 301 297 292 288 293 294 297 294 296 297 297 298 296 295 295 299 300 301 301 301 297 293 290 293 292 297 300 298 296 295 291 289 287 292 293 295 296 299 298 297 298
150 129 170 232 219 232 243 258 261 276 292 302 314 317 306 305 307 296 283 275 273 267 274 284 297 303 304 294 288 301 305 309 312 312 313 314 321 354 301 281 283 296 291 287 289 289 293 287 285 288 290 292 293 292 295 295 296 296 297 297 296 297 295 295 297 301 303 301 297 295 290 292 293 294 296 294 295 288 291 290 295 296 300 301 303
154 185 206 230 229 229 246 248 258 291 300 297 304 306 294 283 271 261 265 273 273 278 286 291 296 295 295 292 309 303 302 308 310 308 304 309 320 310 292 286 282 284 290 284 271 271 279 285 284 285 287 287 288 292 293 294 297 297 298 298 297 292 296 299 300 296 292 291 294 294 294 290 294 293 295 290 293 293 293 294 298 301 301 300 295
208 224 225 234 247 230 222 233 274 288 295 302 303 287 281 274 265 269 269 267 274 276 277 284 286 281 275 278 294 291 306 304 316 309 311 306 297 281 275 279 277 280 277 278 278 273 270 279 283 281 283 284 286 287 290 292 294 294 294 295 296 297 298 297 294 294 292 291 292 291 292 292 294 293 291 291 291 291 292 294 295 298 299 300 298
225 226 238 238 208 263 272 259 288 304 307 298 284 276 266 265 263 263 266 267 272 275 276 280 281 277 278 286 282 289 292 289 288 292 298 301 300 295 278 275 275 271 277 284 279 276 277 276 279 283 282 282 283 284 282 284 287 290 294 291 292 295 293 292 292 296 293 291 291 291 294 295 293 293 289 286 287 290 294 297 298 297 294 293 291
214 233 225 232 228 209 308 318 301 277 261 259 259 259 257 258 261 261 260 265 270 272 274 272 270 274 276 276 283 290 284 280 282 281 280 284 290 289 286 273 267 272 271 270 276 278 275 278 281 280 280 279 281 282 283 284 285 287 288 291 291 290 291 292 290 291 291 290 288 290 290 290 293 294 292 291 295 296 295 294 295 295 293 291 290
229 226 235 233 245 224 250 275 260 260 265 261 266 260 261 263 262 259 261 264 263 268 273 273 272 274 277 282 284 286 283 269 272 275 277 276 276 279 276 272 263 259 265 265 269 277 280 280 280 280 281 282 282 283 285 284 285 286 287 289 287 290 292 292 292 292 292 294 295 293 293 293 293 291 291 294 295 294 296 294 295 292 294 294 291
214 226 228 237 232 228 233 245 254 253 261 260 256 257 260 259 255 257 261 263 264 267 267 272 276 280 280 281 285 287 276 266 263 268 269 272 273 273 273 271 270 263 261 264 263 262 269 274 278 278 277 278 277 277 280 281 283 285 286 287 288 289 288 291 295 295 295 292 293 292 291 291 291 290 289 292 296 294 291 296 295 293 290 293 295
222 230 234 227 227 232 246 237 248 257 254 255 260 257 256 254 259 260 259 264 267 264 264 266 270 278 280 285 284 279 266 264 260 260 262 266 267 270 272 274 274 272 270 267 265 258 260 268 273 277 276 274 273 270 270 271 271 274 282 286 288 288 289 289 290 295 297 298 296 296 294 290 289 292 294 296 294 296 295 295 295 296 296 294 296
224 225 228 237 244 236 247 249 243 248 262 265 266 263 261 257 261 262 260 261 263 263 262 263 266 270 275 277 277 274 271 267 266 266 265 264 269 270 272 273 273 272 274 274 269 266 261 265 269 275 280 280 278 277 276 275 272 268 268 277 282 286 286 288 288 291 294 293 291 291 291 290 291 293 294 293 294 295 295 296 292 295 296 298 295
223 225 232 233 237 242 247 248 250 254 256 261 263 267 262 259 256 257 258 257 259 260 263 263 263 262 263 268 271 269 270 271 270 264 265 266 265 268 269 270 270 271 270 272 274 272 267 265 269 273 276 280 285 284 284 280 281 277 273 265 271 275 278 281 282 284 281 284 285 284 287 291 293 291 292 296 294 294 289 293 293 291 292 297 297
228 224 231 227 236 238 244 248 255 259 258 259 259 259 263 257 251 251 252 253 256 258 259 261 262 264 264 265 266 269 268 269 268 272 267 266 267 268 270 270 271 271 272 270 268 269 270 270 266 268 271 276 280 282 284 283 283 283 282 278 275 280 279 281 281 279 282 285 285 289 293 293 292 293 296 297 297 294 294 292 294 298 296 297 297
230 227 231 231 234 243 253 253 256 260 264 265 261 261 259 259 257 253 255 257 259 260 264 264 261 261 265 266 263 265 266 266 266 267 269 268 266 265 266 267 269 270 274 275 273 268 267 268 270 270 273 276 278 282 283 285 285 284 286 285 283 280 285 288 292 291 285 287 292 294 291 291 293 294 295 296 296 298 297 296 299 297 298 299 301
228 231 236 237 240 242 247 251 251 255 255 259 263 264 261 261 260 257 256 256 258 258 258 260 264 262 260 262 265 267 265 266 265 267 266 267 266 264 264 264 267 268 270 272 275 273 272 271 269 271 272 277 275 278 281 284 285 286 287 289 289 289 292 293 290 293 302 302 292 291 291 292 295 296 296 296 295 294 294 296 297 299 302 303 305
234 232 239 243 244 248 246 246 248 251 252 255 256 261 262 260 259 259 256 257 260 259 258 255 258 258 259 266 268 269 269 268 267 266 266 268 267 267 267 266 266 267 266 268 272 275 275 274 274 274 275 277 278 277 278 281 282 284 286 287 292 293 291 295 305 306 303 296 297 296 298 295 293 292 294 295 295 296 297 296 299 301 302 303 304
243 242 244 241 246 246 248 247 252 251 252 254 254 257 261 261 258 257 256 256 259 262 264 263 263 264 261 259 261 266 268 270 268 267 266 266 267 269 268 268 268 268 270 268 272 273 274 274 276 276 278 278 281 281 280 280 283 282 281 284 289 297 308 312 306 302 302 305 304 303 298 300 298 298 298 296 294 295 294 297 301 303 306 307 307